[[{"header":{"parameterUnit":"m.s-1","parameterCategory":1,"la1":30.2991,"la2":30.254,"lo1":-89.0895,"lo2":-89.0444,"dy":0.0017,"dx":0.0017,"nx":28,"ny":28,"refTime":"2025-06-11T21:00:00:Z","depth":0,"parameterNumber":2,"parameterNumberName":"U-component_of_WINDS"},"data":[0,0,0,0,0,0,0,0,0,0,0,0,0,0,0,0,0,0,0,0,0,0,0,0,0,0,0,0,0,0,0,0,0,0,0,0,0,0,0,0,0,0,0,0,0,0,0,0,0,0,0,0,0,0,0,0,0,0,-0.0033,-0.0032,0,0.0003,0.0004,0.0004,0.0053,0.0054,0.0055,0.0056,0.0093,0.0093,0.0093,0,0,0,0,0,0,0,0,0,0,0,0,0,-0.006,-0.006,-0.0033,-0.0032,-0.0032,0.0003,0.0004,0.0004,0.0053,0.0054,0.0055,0.0056,0.0093,0.0093,0.0093,0,0,0,0,0,0,0,0,0,0,0,0,0,-0.0039,-0.006,-0.0033,-0.0003,-0.0,0.0003,0.0004,0.0004,0.0053,0.0054,0.0056,0.0057,0.0093,0.0093,0.0093,0.007,0,0,0.0094,0.0094,0,0,0,0,0,0,0,0,-0.004,-0.0038,-0.0008,-0.0005,-0.0002,0.0025,0.0008,0.0027,0.0053,0.0033,0.0056,0.0057,0.0069,0.0072,0.0076,0.0072,0.0074,0.0094,0.0095,0.0095,0.0095,0,0,0,0,0,0,0,-0.0042,-0.0039,-0.0019,-0.0008,-0.0004,0.0008,0.0012,0.0011,0.0044,0.0035,0.0038,0.0042,0.0071,0.0075,0.0077,0.0074,0.0094,0.0095,0.0095,0.0095,0.0052,0.0051,0,0,0,0,0,0,-0.0048,-0.0041,-0.002,-0.0017,-0.0018,0.0007,0.0012,0.0015,0.0044,0.0049,0.0041,0.0044,0.0074,0.0077,0.0078,0.0053,0.0095,0.0095,0.0095,0.0054,0.0052,0.0051,0,0,0,0,0,0,-0.0048,-0.0046,-0.0021,-0.0028,-0.0024,0.0007,0.0009,0.0015,0.0019,0.0049,0.0054,0.0039,0.0075,0.0078,0.0072,0.0055,0.0095,0.0095,0.0055,0.0053,0.0051,0.0001,0,0,0,0,0,0,-0.0049,-0.0047,-0.0055,-0.0029,-0.0024,-0.0028,0.0008,0.0015,0.002,0.0024,0.0048,0.0054,0.0076,0.0071,0.0072,0.0056,0.0096,0.0057,0.0054,0.0052,0.0005,-0.0002,-0.0008,0,0,0,0,0,-0.005,-0.007,-0.0055,-0.0053,-0.0033,-0.0029,-0.0027,0.0,0.0018,0.001,0.0029,0.0053,0.0056,0.007,0.0072,0.0055,0.0058,0.0055,0.0052,0.0007,-0.0001,-0.0008,0,0,0,0,0,0,-0.0098,-0.0066,-0.0049,-0.0061,-0.0048,-0.0021,-0.003,-0.0009,-0.0001,0.0002,0.0035,0.004,0.0029,0.0042,0.0056,0.0034,0.0061,0.0058,0.0026,0.0019,0.0012,0.001,0.0096,0,0,0,0,0,-0.011,-0.011,-0.0081,-0.0094,-0.0089,-0.0061,-0.0058,-0.0039,-0.0025,-0.0019,-0.0001,0.0012,0.0016,0.0018,0.0023,0.0006,0.0012,-0.0004,-0.0011,-0.0016,-0.0019,-0.0028,-0.0035,0.0041,0.0041,0.0041,0,0,-0.0135,-0.0117,-0.0118,-0.0104,-0.0091,-0.0092,-0.0057,-0.0058,-0.0059,-0.0019,-0.0024,-0.0011,0.0006,-0.0006,-0.0011,0.0004,-0.0039,-0.002,-0.0024,-0.0024,-0.0032,-0.0039,-0.0045,0.0039,0.0039,0.0039,0,0,-0.018,-0.0166,-0.0176,-0.0165,-0.0147,-0.0129,-0.0131,-0.0108,-0.0097,-0.0102,-0.0073,-0.0073,-0.0066,-0.0056,-0.005,-0.0094,-0.0071,-0.0093,-0.0126,-0.0135,-0.0141,-0.0146,-0.0163,-0.0169,-0.0096,-0.0096,-0.0096,0,-0.0213,-0.0212,-0.0184,-0.0188,-0.0182,-0.0147,-0.0157,-0.0148,-0.013,-0.0127,-0.0112,-0.0104,-0.009,-0.01,-0.0111,-0.0107,-0.011,-0.0095,-0.0143,-0.0147,-0.0152,-0.0167,-0.0173,-0.0099,-0.0098,-0.0098,-0.0098,0,-0.0254,-0.0254,-0.0264,-0.0248,-0.0244,-0.0251,-0.0224,-0.0223,-0.0205,-0.0189,-0.0194,-0.0177,-0.0168,-0.0169,-0.0151,-0.0177,-0.0169,-0.0148,-0.0121,-0.0162,-0.0176,-0.0182,-0.0103,-0.0102,-0.0101,-0.01,0,0,-0.0327,-0.0296,-0.03,-0.0293,-0.0272,-0.0272,-0.0278,-0.0269,-0.027,-0.0259,-0.0264,-0.026,-0.0242,-0.0235,-0.0215,-0.0224,-0.0261,-0.0202,-0.0201,-0.0214,-0.029,-0.0305,-0.0313,-0.0246,-0.0247,-0.0248,-0.0291,0,-0.0368,-0.0376,-0.0352,-0.0367,-0.0367,-0.0335,-0.034,-0.0328,-0.0313,-0.0312,-0.0296,-0.0294,-0.0269,-0.0265,-0.0272,-0.0255,-0.0275,-0.0251,-0.0251,-0.0251,-0.0256,-0.0319,-0.0336,-0.0378,-0.0296,-0.0297,-0.0298,0,-0.0417,-0.0409,-0.0425,-0.0404,-0.0403,-0.0409,-0.04,-0.0399,-0.0385,-0.0374,-0.0367,-0.0345,-0.035,-0.0324,-0.0331,-0.0316,-0.0314,-0.0306,-0.0307,-0.0306,-0.0277,-0.0321,-0.039,-0.0397,-0.0306,-0.0305,-0.0305,0,-0.047,-0.0463,-0.0472,-0.0467,-0.0443,-0.0447,-0.0438,-0.0423,-0.042,-0.0412,-0.041,-0.0404,-0.04,-0.0396,-0.0372,-0.0355,-0.0383,-0.0354,-0.0374,-0.0375,-0.0382,-0.0382,-0.0452,-0.038,-0.038,-0.038,-0.038,0,-0.0519,-0.053,-0.0496,-0.0501,-0.0512,-0.0484,-0.0497,-0.0484,-0.0471,-0.0474,-0.0445,-0.0448,-0.0417,-0.0418,-0.04,-0.0409,-0.0408,-0.0399,-0.0394,-0.0402,-0.0403,-0.0401,-0.0397,-0.0382,-0.0381,-0.0381,-0.0381,0,-0.058,-0.0557,-0.0565,-0.0542,-0.0536,-0.0546,-0.0526,-0.0531,-0.0515,-0.0519,-0.0518,-0.0493,-0.0491,-0.0468,-0.0462,-0.045,-0.0467,-0.0456,-0.0472,-0.0468,-0.049,-0.0489,-0.0562,-0.0571,-0.0493,-0.0493,-0.0494,0,-0.0613,-0.062,-0.0599,-0.0598,-0.059,-0.059,-0.0587,-0.0561,-0.0559,-0.0545,-0.0551,-0.0548,-0.0544,-0.0544,-0.0525,-0.0521,-0.051,-0.0536,-0.0509,-0.0517,-0.0511,-0.0511,-0.0513,-0.0542,-0.0543,-0.0544,-0.0544,0,-0.0674,-0.0663,-0.066,-0.0653,-0.0651,-0.0645,-0.0636,-0.0638,-0.0609,-0.0609,-0.0607,-0.0604,-0.0598,-0.0596,-0.0588,-0.0578,-0.0557,-0.0553,-0.0558,-0.0566,-0.0575,-0.0571,-0.0488,-0.0551,-0.0551,-0.055,-0.055,-0.055,-0.0722,-0.0728,-0.0714,-0.0712,-0.0703,-0.0697,-0.07,-0.0685,-0.0683,-0.0676,-0.0661,-0.0662,-0.065,-0.0637,-0.063,-0.0631,-0.0618,-0.0624,-0.0626,-0.0628,-0.0633,-0.0574,-0.063,-0.0629,-0.0629,-0.0629,-0.0629,0,-0.0782,-0.0772,-0.077,-0.076,-0.0759,-0.0739,-0.073,-0.073,-0.0732,-0.0722,-0.0719,-0.0718,-0.0716,-0.0698,-0.0694,-0.0698,-0.0689,-0.0698,-0.0698,-0.0696,-0.0644,-0.0641,-0.0706,-0.0706,-0.0706,-0.0706,-0.0706,-0.0706,-0.0813,-0.0823,-0.081,-0.0815,-0.0805,-0.0806,-0.0803,-0.0797,-0.0789,-0.079,-0.0788,-0.0776,-0.0763,-0.0758,-0.0755,-0.075,-0.075,-0.0764,-0.0755,-0.0707,-0.07,-0.0692,-0.0689,-0.0764,-0.0764,-0.0807,-0.0807,-0.0808]},{"header":{"parameterUnit":"m.s-1","parameterCategory":1,"la1":30.2991,"la2":30.254,"lo1":-89.0895,"lo2":-89.0444,"dy":0.0017,"dx":0.0017,"nx":28,"ny":28,"refTime":"2025-06-11T21:00:00:Z","depth":0,"parameterNumber":3,"parameterNumberName":"V-component_of_WINDS"},"data":[0,0,0,0,0,0,0,0,0,0,0,0,0,0,0,0,0,0,0,0,0,0,0,0,0,0,0,0,0,0,0,0,0,0,0,0,0,0,0,0,0,0,0,0,0,0,0,0,0,0,0,0,0,0,0,0,0,0,5.3003,5.3002,0,5.2948,5.2948,5.2947,5.2927,5.2928,5.2928,5.2928,5.2865,5.2863,5.2861,0,0,0,0,0,0,0,0,0,0,0,0,0,5.3086,5.3085,5.3003,5.3002,5.3002,5.2948,5.2948,5.2947,5.2927,5.2928,5.2928,5.2928,5.2865,5.2863,5.2861,0,0,0,0,0,0,0,0,0,0,0,0,0,5.3042,5.3084,5.3003,5.2986,5.2984,5.2949,5.2948,5.2947,5.2927,5.2928,5.2928,5.2928,5.2866,5.2863,5.2861,5.2836,0,0,5.2852,5.2851,0,0,0,0,0,0,0,0,5.3045,5.3039,5.2989,5.2987,5.2985,5.2945,5.2954,5.2909,5.2927,5.2949,5.2928,5.2928,5.2891,5.2886,5.2875,5.2833,5.2831,5.2852,5.285,5.2849,5.2848,0,0,0,0,0,0,0,5.3048,5.3042,5.2981,5.2988,5.2986,5.2979,5.2973,5.2945,5.2918,5.2947,5.2945,5.2939,5.289,5.2877,5.2873,5.283,5.2852,5.2849,5.2847,5.2846,5.2768,5.2768,0,0,0,0,0,0,5.3055,5.3044,5.2983,5.298,5.3016,5.2977,5.2971,5.2957,5.2919,5.2913,5.2939,5.2939,5.2882,5.2876,5.2871,5.2841,5.2849,5.2846,5.2844,5.2768,5.2768,5.2767,0,0,0,0,0,0,5.3057,5.3049,5.2985,5.3012,5.3003,5.2976,5.2961,5.2956,5.2944,5.2913,5.2907,5.2932,5.2882,5.2875,5.2846,5.2839,5.2845,5.2842,5.2769,5.2768,5.2768,5.2781,0,0,0,0,0,0,5.3059,5.305,5.3042,5.3012,5.3002,5.2963,5.296,5.2955,5.294,5.2939,5.2905,5.2899,5.2882,5.285,5.2843,5.2835,5.284,5.2769,5.2769,5.2768,5.2781,5.2781,5.2781,0,0,0,0,0,5.3062,5.3046,5.3041,5.3034,5.2991,5.2962,5.2957,5.2939,5.294,5.293,5.2911,5.29,5.2841,5.2848,5.2839,5.283,5.277,5.2769,5.2768,5.2781,5.2781,5.2781,0,0,0,0,0,0,5.3072,5.3041,5.3036,5.301,5.299,5.2959,5.2947,5.2939,5.2916,5.2915,5.2892,5.2884,5.2858,5.2841,5.2849,5.2806,5.2805,5.2802,5.2818,5.2817,5.2817,5.2821,5.2838,0,0,0,0,0,5.3072,5.3054,5.3027,5.3006,5.2997,5.2974,5.2961,5.2949,5.2926,5.2916,5.2894,5.287,5.2847,5.2831,5.2807,5.2779,5.2772,5.2769,5.2769,5.2769,5.2766,5.2752,5.275,5.2765,5.2765,5.2765,0,0,5.307,5.3051,5.304,5.3008,5.2991,5.2971,5.2966,5.2945,5.2929,5.2912,5.2885,5.2868,5.284,5.2812,5.2799,5.2797,5.2761,5.2768,5.2768,5.2765,5.2751,5.2749,5.2748,5.2764,5.2764,5.2764,0,0,5.3057,5.3041,5.3023,5.3007,5.2982,5.2967,5.2963,5.2935,5.2924,5.2897,5.2884,5.2865,5.2824,5.2805,5.279,5.2773,5.2763,5.2766,5.2765,5.2751,5.275,5.2749,5.2743,5.2742,5.2764,5.2764,5.2764,0,5.3057,5.3029,5.3014,5.2994,5.298,5.2968,5.2949,5.2933,5.29,5.289,5.289,5.2841,5.282,5.2789,5.2785,5.2773,5.2767,5.2769,5.2752,5.275,5.2749,5.2744,5.2742,5.2765,5.2765,5.2765,5.2764,0,5.303,5.3011,5.2999,5.2972,5.2957,5.2937,5.2919,5.2905,5.2896,5.2881,5.2854,5.283,5.2802,5.2794,5.2783,5.2761,5.2761,5.2757,5.2755,5.2749,5.2743,5.2741,5.2765,5.2765,5.2765,5.2765,0,0,5.3019,5.2987,5.2983,5.2972,5.2945,5.2928,5.2909,5.2885,5.2873,5.2852,5.2835,5.2802,5.2799,5.2782,5.2769,5.2757,5.2746,5.2754,5.2753,5.2754,5.2722,5.2725,5.2723,5.274,5.274,5.274,5.2724,0,5.3003,5.297,5.2957,5.2929,5.2911,5.29,5.2883,5.2864,5.2851,5.2833,5.2816,5.2794,5.2791,5.2781,5.2769,5.275,5.274,5.2751,5.2723,5.2722,5.273,5.272,5.2723,5.271,5.2722,5.2722,5.2721,0,5.2978,5.2961,5.2932,5.291,5.2902,5.2887,5.2865,5.2848,5.2826,5.2817,5.2801,5.279,5.2768,5.2769,5.2739,5.2747,5.2735,5.2724,5.2723,5.2719,5.2721,5.2716,5.2705,5.2703,5.2718,5.2718,5.2718,0,5.2974,5.2943,5.2922,5.2912,5.2886,5.2876,5.2864,5.2843,5.283,5.281,5.2801,5.2778,5.2765,5.2747,5.273,5.2732,5.2702,5.2701,5.2693,5.2693,5.2685,5.2686,5.2673,5.2678,5.2678,5.2678,5.2678,0,5.2956,5.2939,5.292,5.2907,5.2888,5.2874,5.2855,5.2842,5.2824,5.2808,5.2796,5.2781,5.2759,5.2741,5.2727,5.2705,5.2698,5.269,5.2686,5.2691,5.2692,5.2682,5.2682,5.2678,5.2678,5.2678,5.2678,0,5.2947,5.2934,5.2911,5.2889,5.2884,5.287,5.2851,5.2838,5.2825,5.2805,5.2799,5.2778,5.2756,5.2738,5.2708,5.2699,5.2676,5.2672,5.2684,5.2682,5.2675,5.2676,5.2654,5.2651,5.2659,5.2659,5.2659,0,5.2937,5.2924,5.2902,5.2892,5.2881,5.2864,5.2852,5.2838,5.2825,5.2802,5.2791,5.277,5.2751,5.2717,5.2698,5.2676,5.2671,5.2665,5.2667,5.2673,5.2671,5.2672,5.2671,5.2664,5.2664,5.2664,5.2664,0,5.292,5.2915,5.2899,5.2881,5.2868,5.2852,5.2836,5.2828,5.2811,5.2797,5.2777,5.2763,5.2735,5.2713,5.269,5.2676,5.2667,5.2664,5.2661,5.2665,5.2673,5.2669,5.2684,5.2664,5.2664,5.2664,5.2664,5.2664,5.2909,5.2898,5.2882,5.2865,5.2853,5.2839,5.2827,5.2814,5.2797,5.2775,5.2768,5.2747,5.2727,5.2695,5.2681,5.2664,5.2663,5.2658,5.2657,5.2656,5.2657,5.2677,5.2659,5.2659,5.2659,5.2659,5.2659,0,5.2892,5.2882,5.2867,5.2847,5.2834,5.2831,5.2813,5.2802,5.2785,5.2768,5.2752,5.2729,5.2709,5.269,5.2669,5.2659,5.2654,5.2653,5.2654,5.2651,5.2659,5.2664,5.2658,5.2658,5.2658,5.2658,5.2658,5.2658,5.2881,5.2863,5.2857,5.2832,5.2822,5.2803,5.2794,5.2781,5.2769,5.2745,5.2729,5.2718,5.2701,5.2679,5.266,5.2655,5.2647,5.2648,5.2642,5.2649,5.265,5.265,5.2655,5.2647,5.2647,5.2635,5.2635,5.2635]}]]